This is the latest recevied weather packets stored in our database for station/object KQ7A. If no packets are shown the sender has not sent any weather packets the latest 10 day(s).
| Time | Temp. | Humidity | Pressure | Rain* | Wind** | Luminosity | Snow |
|---|---|---|---|---|---|---|---|
| 1777838438 | 18.33° C | 46% | 1013.1 hPa | 0 mm | - | 361 W/m² | - |
| 1777838136 | 18.33° C | 48% | 1013.1 hPa | 0 mm | - | 363 W/m² | - |
| 1777837827 | 18.89° C | 47% | 1012.9 hPa | 0 mm | - | 244 W/m² | - |
| 1777837525 | 18.89° C | 42% | 1012.9 hPa | 0 mm | - | 312 W/m² | - |
| 1777837224 | 18.89° C | 45% | 1012.6 hPa | 0 mm | - | 372 W/m² | - |
| 1777836922 | 18.89° C | 44% | 1012.8 hPa | 0 mm | - | 359 W/m² | - |
| 1777836616 | 18.89° C | 46% | 1013.1 hPa | 0 mm | - | 484 W/m² | - |
| 1777836313 | 18.89° C | 44% | 1013.1 hPa | 0 mm | - | 479 W/m² | - |
| 1777836009 | 18.33° C | 41% | 1013.1 hPa | 0 mm | - | 510 W/m² | - |
| 1777835706 | 18.33° C | 43% | 1013.2 hPa | 0 mm | - | 461 W/m² | - |
| 1777835403 | 18.89° C | 46% | 1013.1 hPa | 0 mm | - | 483 W/m² | - |
| 1777835099 | 18.89° C | 43% | 1013.2 hPa | 0 mm | - | 527 W/m² | - |
| 1777834796 | 18.89° C | 44% | 1013.2 hPa | 0 mm | - | 492 W/m² | - |
| 1777834493 | 18.33° C | 43% | 1013.3 hPa | 0 mm | - | 514 W/m² | - |
| 1777834192 | 18.33° C | 48% | 1013.3 hPa | 0 mm | - | 396 W/m² | - |
| 1777833889 | 18.33° C | 46% | 1013.7 hPa | 0 mm | - | 396 W/m² | - |
| 1777833585 | 18.33° C | 43% | 1013.5 hPa | 0 mm | - | 388 W/m² | - |
| 1777833282 | 18.33° C | 45% | 1013.8 hPa | 0 mm | - | 371 W/m² | - |
| 1777832979 | 18.33° C | 44% | 1013.9 hPa | 0 mm | - | 384 W/m² | - |
| 1777832678 | 18.33° C | 43% | 1014 hPa | 0 mm | - | 376 W/m² | - |
| 1777832375 | 18.33° C | 46% | 1013.9 hPa | 0 mm | - | 360 W/m² | - |
| 1777832072 | 17.78° C | 46% | 1014 hPa | 0 mm | - | 383 W/m² | - |
| 1777831768 | 17.22° C | 51% | 1014.1 hPa | 0 mm | - | 473 W/m² | - |
| 1777831466 | 16.67° C | 61% | 1014 hPa | 0 mm | - | 421 W/m² | - |
| 1777831163 | 16.67° C | 62% | 1014.3 hPa | 0 mm | - | 503 W/m² | - |
* Rain latest hour (hover to see other rain measurements)
** Current wind speed in m/s (hover to see current wind gust speed)